Location: Powder Track
(41.8531°N, 72.3584°W)
Time: 23:34:31
(UTC+00:00)

Vanguard 3 - Visible Passes

Search period start: 28 July 2021 00:00
Search period end: 07 August 2021 00:00
Orbit: 508 x 3261 km, 33.4° (Epoch: 28 July)

Date Brightness Start Highest point End Pass type
(mag) Time Alt. Az. Time Alt. Az. Time Alt. Az.
28 Jul 10.0 02:10:27 10° W 02:29:48 66° S 02:45:06 15° ESE visible
28 Jul 9.7 04:26:49 10° W 04:45:15 50° SSW 04:49:32 43° S visible
28 Jul 10.5 06:46:12 10° W 06:53:57 20° WSW 06:53:57 20° WSW visible
29 Jul 10.1 00:54:29 10° WSW 01:12:39 65° S 01:31:08 10° E visible
29 Jul 9.9 03:09:35 10° W 03:28:56 60° SSW 03:38:16 32° SE visible
29 Jul 10.0 05:27:02 10° W 05:42:42 35° SW 05:42:42 35° SW visible
30 Jul 10.0 01:53:04 10° W 02:11:59 65° S 02:27:06 18° ESE visible
30 Jul 9.8 04:09:07 10° W 04:27:31 48° SSW 04:31:33 43° S visible
30 Jul 10.7 06:28:48 10° W 06:36:00 19° WSW 06:36:00 19° WSW visible
31 Jul 10.1 00:37:19 10° WSW 00:54:48 66° S 01:13:50 10° E visible
31 Jul 10.0 02:52:05 10° W 03:11:06 58° SSW 03:20:28 33° SE visible
31 Jul 10.2 05:09:23 10° W 05:24:55 33° SW 05:24:55 33° SW visible
01 Aug 10.1 01:35:49 10° W 01:54:08 64° S 02:09:27 19° ESE visible
01 Aug 10.0 03:51:33 10° W 04:09:40 46° SSW 04:13:54 41° S visible
01 Aug 10.8 06:11:35 10° W 06:18:21 17° WSW 06:18:21 17° WSW visible
02 Aug 10.2 00:20:18 10° WSW 00:36:59 66° S 00:56:25 10° ESE visible
02 Aug 10.1 02:34:43 10° W 02:53:13 56° SSW 03:02:56 33° SE visible
02 Aug 10.4 04:51:53 10° W 05:07:24 31° SW 05:07:24 31° SW visible
03 Aug 10.1 01:18:42 10° W 01:36:15 63° S 01:52:01 18° ESE visible
03 Aug 10.1 03:34:06 10° W 03:51:46 43° SSW 03:56:29 38° S visible
03 Aug 10.9 05:54:40 10° W 06:00:57 16° WSW 06:00:57 16° WSW visible
04 Aug 10.1 00:03:25 10° WSW 00:19:13 65° S 00:38:52 10° ESE visible
04 Aug 10.2 02:17:29 10° W 02:35:19 53° SSW 02:45:37 31° SE visible
04 Aug 10.5 04:34:34 10° W 04:49:36 28° SW 04:50:05 28° SW visible
05 Aug 10.2 01:01:42 10° W 01:18:25 61° SSW 01:34:48 17° ESE visible
05 Aug 10.3 03:16:50 10° W 03:33:50 40° SSW 03:39:16 35° S visible
05 Aug 11.1 05:38:13 10° WSW 05:43:45 14° WSW 05:43:45 14° WSW visible
06 Aug 10.3 02:00:24 10° W 02:17:24 51° SSW 02:28:31 28° SSE visible
06 Aug 10.6 04:17:28 10° W 04:31:42 26° SW 04:32:59 26° SW visible
